Location: Innerarity Island Observatory
(30.3139°N, 87.4867°W)
Time: 19:37:18
(UTC-05:00)

Amateur Radio Satellites - All Passes

Search period start: 24 October 2014 19:07
Search period end: 25 October 2014 19:07
Location: Innerarity Island Observatory, 30.3139°N, 87.4867°W

Satellite Date Start Highest point End Downlink Frequencies (MHz)
Time Altitude Azimuth
Hamsat 24 Oct 19:13:01 19:14:28 12° 266° (W) 19:15:56 145.90 MHz
HO-68 24 Oct 19:18:06 19:19:26 11° 58° (ENE) 19:20:46 435.675 MHz FM
OPAL 24 Oct 19:38:05 19:39:09 11° 297° (WNW) 19:40:13 ?
STRAND 1 24 Oct 19:39:56 19:45:06 86° 103° (ESE) 19:50:14 ?
AO-40 24 Oct 20:05:14 22:16:52 42° 209° (SSW) 03:32:15 Beacon 2401.320
ISS 24 Oct 20:16:50 20:20:09 67° 45° (NE) 20:23:27 145.800 FM
RS-15 24 Oct 20:35:59 20:44:28 26° 104° (ESE) 20:52:46 29.354 - 29.394 USB, Beacon 29.352 USB
UKube-1 24 Oct 20:45:06 20:47:12 13° 68° (ENE) 20:49:18 145.840 MHz, 145.915 MHz
HO-68 24 Oct 20:58:49 21:05:57 77° 73° (ENE) 21:13:07 435.675 MHz FM
FUNcube-1 24 Oct 21:23:58 21:26:22 14° 69° (ENE) 21:28:46 145.950 - 145.970 MHz USB
Oscar 11 24 Oct 21:24:41 21:28:37 35° 74° (ENE) 21:32:34 145.825 FM, Beacon 2401.500 USB
KITSAT 1 24 Oct 21:30:39 21:38:31 53° 60° (ENE) 21:46:18 435.175 FM
SO-50 24 Oct 21:41:44 21:45:55 28° 56° (NE) 21:50:06 436.795 FM
ZACube-1 24 Oct 22:13:04 22:17:34 55° 76° (ENE) 22:22:02 437.345 MHz
UKube-1 24 Oct 22:18:55 22:22:59 40° 260° (W) 22:27:05 145.840 MHz, 145.915 MHz
RS-15 24 Oct 22:44:51 22:55:50 67° 300° (WNW) 23:06:42 29.354 - 29.394 USB, Beacon 29.352 USB
HO-68 24 Oct 22:50:36 22:54:08 14° 266° (W) 22:57:41 435.675 MHz FM
FUNcube-1 24 Oct 22:58:00 23:02:21 42° 261° (W) 23:06:40 145.950 - 145.970 MHz USB
Oscar 11 24 Oct 23:02:34 23:04:51 14° 266° (W) 23:07:08 145.825 FM, Beacon 2401.500 USB
UOSAT-12 24 Oct 23:06:34 23:09:45 18° 53° (NE) 23:12:54 437.025 FM, 437.400 FM
SO-50 24 Oct 23:22:18 23:26:20 26° 249° (WSW) 23:30:22 436.795 FM
KITSAT 1 24 Oct 23:26:58 23:33:23 27° 255° (WSW) 23:39:50 435.175 FM
MaSat-1 24 Oct 23:48:17 23:52:28 53° 292° (WNW) 23:56:20 437.345 MHz
UOSAT-12 25 Oct 00:45:40 00:50:02 40° 247° (WSW) 00:54:19 437.025 FM, 437.400 FM
JAS-1B 25 Oct 00:58:46 01:02:40 15° 96° (E) 01:06:50 435.800 - 435.900 CW/SSB
RS-15 25 Oct 01:04:39 01:10:39 16° 324° (NW) 01:16:41 29.354 - 29.394 USB, Beacon 29.352 USB
Oscar 16 25 Oct 01:07:25 01:09:34 13° 94° (E) 01:11:43 437.025 USB, Beacon 2401.1428
Oscar 10/S400 25 Oct 01:24:56 02:35:02 24° 248° (WSW) 05:22:27 145.825 - 145.975 CW/USB, Beacon 145.810 USB
Oscar 19 25 Oct 01:58:25 02:03:20 47° 100° (E) 02:08:14 437.125 CW, 437.150 USB
AO-27 25 Oct 02:16:55 02:21:19 27° 97° (E) 02:25:40 436.795 MHz FM
AO-Echo 25 Oct 02:38:04 02:43:22 63° 101° (E) 02:48:35 ?
Sapphire 25 Oct 02:40:11 02:44:10 21° 106° (ESE) 02:48:10 437.095 MHz 1200 baud AX-25 AFSK
Oscar 16 25 Oct 02:44:10 02:49:09 54° 286° (WNW) 02:54:07 437.025 USB, Beacon 2401.1428
JAS-1B 25 Oct 02:46:17 02:53:17 80° 285° (WNW) 03:01:43 435.800 - 435.900 CW/SSB
PCSat 25 Oct 03:01:33 03:06:31 39° 109° (ESE) 03:11:31 145.825 MHz
Uribyol 2 25 Oct 03:03:51 03:09:05 89° 285° (WNW) 03:14:15 436.500 FM
ITAMSAT 1 25 Oct 03:09:55 03:15:10 84° 284° (WNW) 03:20:21 435.822 SSB
Gurwin Techsat 1B 25 Oct 03:30:39 03:35:59 80° 103° (ESE) 03:41:17 435.225 FM
Oscar 19 25 Oct 03:39:17 03:42:14 16° 293° (WNW) 03:45:11 437.125 CW, 437.150 USB
TMSAT-1 25 Oct 03:41:47 03:47:06 74° 102° (ESE) 03:52:22 436.925 FM
AO-27 25 Oct 03:56:19 04:00:41 28° 290° (WNW) 04:05:01 436.795 MHz FM
AO-Echo 25 Oct 04:19:13 04:21:30 13° 294° (WNW) 04:23:46 ?
Sapphire 25 Oct 04:22:16 04:27:15 38° 299° (WNW) 04:32:18 437.095 MHz 1200 baud AX-25 AFSK
AO-7 25 Oct 04:22:54 04:30:30 39° 100° (E) 04:38:05 29.400 - 29.500 MHz
Uosat F 25 Oct 04:24:04 04:28:00 23° 97° (E) 04:31:55 435.120 FM
JAS-1B 25 Oct 04:41:46 04:43:12 11° 296° (WNW) 04:44:42 435.800 - 435.900 CW/SSB
PCSat 25 Oct 04:45:51 04:50:00 22° 303° (WNW) 04:54:10 145.825 MHz
OPAL 25 Oct 05:05:06 05:10:12 63° 73° (ENE) 05:15:15 ?
TMSAT-1 25 Oct 05:25:21 05:26:19 11° 296° (WNW) 05:27:16 436.925 FM
Hamsat 25 Oct 05:28:10 05:29:16 11° 93° (E) 05:30:23 145.90 MHz
RS-15 25 Oct 05:42:24 05:50:09 21° 41° (NE) 05:58:03 29.354 - 29.394 USB, Beacon 29.352 USB
JAS-2 25 Oct 05:58:51 06:06:36 60° 100° (E) 06:14:08 435.800 - 435.900 CW/SSB, 435.910 FM
Uosat F 25 Oct 06:02:20 06:06:43 30° 289° (WNW) 06:11:04 435.120 FM
Saudisat 1A 25 Oct 06:10:37 06:13:13 16° 109° (ESE) 06:15:50 436.775 MHz
AO-7 25 Oct 06:15:38 06:23:06 39° 295° (WNW) 06:30:37 29.400 - 29.500 MHz
PANSAT 25 Oct 06:42:44 06:46:11 32° 163° (SSE) 06:49:37 not established
OPAL 25 Oct 06:47:55 06:49:20 11° 265° (W) 06:50:44 ?
STRAND 1 25 Oct 06:50:02 06:55:07 68° 75° (ENE) 07:00:13 ?
Hamsat 25 Oct 07:01:22 07:05:20 42° 285° (WNW) 07:09:19 145.90 MHz
JAS-2 25 Oct 07:44:59 07:50:57 25° 294° (WNW) 07:56:54 435.800 - 435.900 CW/SSB, 435.910 FM
Saudisat 1A 25 Oct 07:48:24 07:52:26 36° 302° (WNW) 07:56:30 436.775 MHz
RS-15 25 Oct 07:52:59 08:04:19 82° 63° (ENE) 08:16:10 29.354 - 29.394 USB, Beacon 29.352 USB
SO-67 25 Oct 08:00:38 08:04:03 62° 282° (WNW) 08:07:26 435.3500 MHz FM
PANSAT 25 Oct 08:22:19 08:26:07 63° 175° (S) 08:29:54 not established
HO-68 25 Oct 08:34:37 08:39:30 19° 95° (E) 08:44:20 435.675 MHz FM
MaSat-1 25 Oct 09:39:59 09:42:26 65° 68° (ENE) 09:44:45 437.345 MHz
PANSAT 25 Oct 10:02:23 10:06:09 57° 188° (S) 10:09:55 not established
KITSAT 1 25 Oct 10:04:50 10:05:39 10° 100° (E) 10:06:27 435.175 FM
RS-15 25 Oct 10:07:58 10:15:29 21° 258° (WSW) 10:23:14 29.354 - 29.394 USB, Beacon 29.352 USB
ZACube-1 25 Oct 10:09:38 10:12:10 16° 95° (E) 10:14:40 437.345 MHz
UKube-1 25 Oct 10:12:30 10:16:46 52° 101° (E) 10:21:00 145.840 MHz, 145.915 MHz
HO-68 25 Oct 10:20:26 10:27:29 61° 288° (WNW) 10:34:31 435.675 MHz FM
FUNcube-1 25 Oct 10:52:51 10:57:00 57° 100° (E) 11:01:04 145.950 - 145.970 MHz USB
Oscar 11 25 Oct 10:53:41 10:57:49 48° 285° (WNW) 11:01:57 145.825 FM, Beacon 2401.500 USB
ISS 25 Oct 11:18:24 11:21:24 32° 129° (SE) 11:24:25 145.800 FM
Oscar 10/S400 25 Oct 11:27:00 11:55:26 37° 154° (SSE) 12:12:09 145.825 - 145.975 CW/USB, Beacon 145.810 USB
PANSAT 25 Oct 11:42:50 11:46:01 25° 200° (SSW) 11:49:13 not established
ZACube-1 25 Oct 11:44:55 11:48:34 29° 287° (WNW) 11:52:10 437.345 MHz
SO-50 25 Oct 11:51:17 11:55:10 30° 111° (ESE) 11:59:08 436.795 FM
UKube-1 25 Oct 11:51:45 11:52:26 10° 294° (WNW) 11:53:06 145.840 MHz, 145.915 MHz
KITSAT 1 25 Oct 11:51:45 11:59:48 80° 113° (ESE) 12:07:54 435.175 FM
PCSat 25 Oct 11:58:32 11:59:18 10° 50° (NE) 12:00:03 145.825 MHz
Oscar 16 25 Oct 12:20:12 12:21:35 11° 65° (ENE) 12:22:58 437.025 USB, Beacon 2401.1428
ISS 25 Oct 12:55:50 12:58:08 17° 323° (NW) 13:00:27 145.800 FM
Oscar 19 25 Oct 13:09:45 13:14:29 38° 72° (ENE) 13:19:13 437.125 CW, 437.150 USB
UOSAT-12 25 Oct 13:12:34 13:15:39 18° 109° (ESE) 13:18:46 437.025 FM, 437.400 FM
Sapphire 25 Oct 13:15:36 13:20:52 50° 63° (ENE) 13:26:06 437.095 MHz 1200 baud AX-25 AFSK
JAS-1B 25 Oct 13:27:18 13:33:13 49° 73° (ENE) 13:38:40 435.800 - 435.900 CW/SSB
AO-27 25 Oct 13:29:52 13:33:56 24° 69° (ENE) 13:38:01 436.795 MHz FM
SO-50 25 Oct 13:32:19 13:35:42 21° 306° (NW) 13:39:10 436.795 FM
PCSat 25 Oct 13:37:57 13:43:23 90° 244° (WSW) 13:48:47 145.825 MHz
AO-Echo 25 Oct 13:45:31 13:50:03 42° 73° (ENE) 13:54:45 ?
KITSAT 1 25 Oct 13:50:24 13:55:59 20° 311° (NW) 14:01:36 435.175 FM
Oscar 16 25 Oct 13:55:10 14:00:18 68° 258° (WSW) 14:05:26 437.025 USB, Beacon 2401.1428
Uribyol 2 25 Oct 14:15:51 14:21:03 77° 76° (ENE) 14:26:17 436.500 FM
ITAMSAT 1 25 Oct 14:22:04 14:27:16 83° 76° (ENE) 14:32:30 435.822 SSB
Gurwin Techsat 1B 25 Oct 14:45:57 14:51:13 71° 75° (ENE) 14:56:30 435.225 FM
Oscar 19 25 Oct 14:50:19 14:53:52 19° 265° (W) 14:57:25 437.125 CW, 437.150 USB
UOSAT-12 25 Oct 14:51:14 14:55:27 36° 302° (WNW) 14:59:47 437.025 FM, 437.400 FM
TMSAT-1 25 Oct 14:56:45 15:01:59 65° 75° (ENE) 15:07:14 436.925 FM
Sapphire 25 Oct 15:00:38 15:03:48 16° 256° (WSW) 15:06:57 437.095 MHz 1200 baud AX-25 AFSK
AO-27 25 Oct 15:08:37 15:13:12 32° 262° (W) 15:17:50 436.795 MHz FM
AO-7 25 Oct 15:16:10 15:23:12 32° 64° (ENE) 15:30:13 29.400 - 29.500 MHz
JAS-1B 25 Oct 15:20:33 15:24:01 16° 264° (W) 15:27:21 435.800 - 435.900 CW/SSB
AO-Echo 25 Oct 15:26:13 15:28:59 15° 266° (W) 15:31:48 ?
Uosat F 25 Oct 15:32:32 15:35:50 18° 68° (ENE) 15:39:08 435.120 FM
JAS-2 25 Oct 16:09:32 16:11:16 11° 59° (ENE) 16:13:03 435.800 - 435.900 CW/SSB, 435.910 FM
Saudisat 1A 25 Oct 16:20:16 16:24:16 33° 58° (ENE) 16:28:15 436.775 MHz
TMSAT-1 25 Oct 16:40:55 16:42:13 11° 267° (W) 16:43:31 436.925 FM
AO-7 25 Oct 17:07:47 17:15:36 47° 258° (WSW) 17:23:30 29.400 - 29.500 MHz
Uosat F 25 Oct 17:09:34 17:14:14 40° 261° (W) 17:18:57 435.120 FM
OPAL 25 Oct 17:21:26 17:25:34 26° 99° (E) 17:29:41 ?
Hamsat 25 Oct 17:48:32 17:52:42 62° 76° (ENE) 17:56:50 145.90 MHz
JAS-2 25 Oct 17:49:26 17:55:09 85° 257° (WSW) 18:01:41 435.800 - 435.900 CW/SSB, 435.910 FM
Saudisat 1A 25 Oct 18:00:36 18:03:32 18° 251° (WSW) 18:06:29 436.775 MHz
SO-67 25 Oct 18:28:49 18:30:53 15° 72° (ENE) 18:32:57 435.3500 MHz FM
